Location: Overspoor
(51.4747°N, 5.6641°E)
Time: 03:45:01
(UTC+02:00)

DUCHIFAT 1 - Pass Details

Date: 05 July 2022
Orbit: 580 x 596 km, 98.0° (Epoch: 09 August)

Event Time Altitude Azimuth Distance (km) Brightness Sun altitude
Rises 03:17:16 0° 26° (NNE) 2,849 ? -12.8°
Reaches altitude 10° 03:19:55 10° 43° (NE) 1,943 ? -12.7°
Maximum altitude 03:23:05 20° 92° (E) 1,382 ? -12.5°
Drops below altitude 10° 03:26:15 10° 141° (SE) 1,934 ? -12.3°
Enters shadow 03:27:44 - 152° (SSE) 2,419 ? -12.2°
